JA1RBY-13 Weather Reports


Display with metric or nautical units.
time (UTC)temp
F
wind
direction
speed
MPH
gust
MPH
rain 1hr
in
rain 24hr
in
rain mn
in
humidity
%
barometer
mb
20260508135229 68 231 9.0 12.0 0.00 0.00 0.00 56 1002.8
20260508133730 68 261 6.0 9.0 0.00 0.00 0.00 56 1002.9
20260508130731 69 259 9.0 12.0 0.00 0.00 0.00 56 1002.9
20260508125231 69 232 9.0 13.0 0.00 0.00 0.00 56 1002.6
20260508123730 69 253 9.0 15.0 0.00 0.00 0.00 56 1002.7
20260508122229 70 246 7.0 10.0 0.00 0.00 0.00 56 1003.1
20260508120730 70 234 8.0 11.0 0.00 0.00 0.00 56 1003.1
20260508113730 70 245 8.0 10.0 0.00 0.00 0.00 57 1003.0
20260508110730 70 245 12.0 19.0 0.00 0.00 0.00 58 1002.6
20260508105230 70 242 12.0 18.0 0.00 0.00 0.00 59 1002.5
20260508103729 71 244 10.0 13.0 0.00 0.00 0.00 59 1002.4
20260508102229 71 243 10.0 13.0 0.00 0.00 0.00 59 1002.6
20260508100730 71 235 9.0 12.0 0.00 0.00 0.00 59 1002.6
20260508093731 72 234 12.0 15.0 0.00 0.00 0.00 59 1002.3
20260508092229 72 237 11.0 16.0 0.00 0.00 0.00 58 1002.4
20260508090730 73 240 8.0 11.0 0.00 0.00 0.00 57 1002.3
20260508083730 73 245 12.0 19.0 0.00 0.00 0.00 56 1002.2
20260508082231 73 237 11.0 14.0 0.00 0.00 0.00 56 1002.1
20260508075231 73 239 5.0 7.0 0.00 0.00 0.00 57 1002.9
20260508073729 73 240 7.0 12.0 0.00 0.00 0.00 59 1003.0
20260508072230 73 223 8.0 12.0 0.00 0.00 0.00 59 1003.1
20260508070730 75 245 9.0 13.0 0.00 0.00 0.00 56 1003.1
20260508063731 76 233 6.0 16.0 0.00 0.00 0.00 54 1003.0
20260508060730 78 217 5.0 10.0 0.00 0.00 0.00 52 1003.1
20260508052231 77 220 7.0 11.0 0.00 0.00 0.00 55 1003.6
20260508050731 76 230 5.0 9.0 0.00 0.00 0.00 57 1004.0
20260508045231 77 244 6.0 9.0 0.00 0.00 0.00 56 1004.5
20260508043730 78 208 6.0 10.0 0.00 0.00 0.00 56 1004.1
20260508035229 77 200 6.0 10.0 0.00 0.00 0.00 56 1005.2
20260508033729 77 175 7.0 10.0 0.00 0.00 0.00 56 1005.4
20260508030731 76 244 5.0 8.0 0.00 0.00 0.00 58 1006.0
20260508023731 73 170 7.0 10.0 0.00 0.00 0.00 61 1006.5
20260508022231 73 168 6.0 9.0 0.00 0.00 0.00 61 1006.7
20260508020730 76 222 7.0 10.0 0.00 0.00 0.00 57 1006.8
20260508015230 78 219 6.0 6.0 0.00 0.00 0.00 54 1006.8
20260508012231 77 203 7.0 10.0 0.00 0.00 0.00 54 1006.5
20260508010731 78 232 7.0 10.0 0.00 0.00 0.00 53 1006.7
20260508005230 77 166 4.0 9.0 0.00 0.00 0.00 54 1006.6
20260508002229 78 210 5.0 10.0 0.00 0.00 0.00 53 1007.2
20260508000731 79 239 8.0 12.0 0.00 0.00 0.00 51 1007.7
20260507235231 80 194 6.0 9.0 0.00 0.00 0.00 50 1007.6
20260507233731 78 206 5.0 6.0 0.00 0.00 0.00 53 1007.7
20260507232231 76 202 5.0 9.0 0.00 0.00 0.00 55 1007.9
20260507230730 76 164 6.0 9.0 0.00 0.00 0.00 53 1007.9
20260507225229 75 351 0.0 0.0 0.00 0.00 0.00 55 1008.0
20260507223729 73 359 0.0 1.0 0.00 0.00 0.00 57 1008.1
20260507215231 68 8 2.0 2.0 0.00 0.00 0.00 62 1008.5
20260507212230 66 7 2.0 2.0 0.00 0.00 0.00 65 1008.4
20260507210731 65 26 0.0 2.0 0.00 0.00 0.00 67 1008.3
20260507205230 65 34 0.0 0.0 0.00 0.00 0.00 67 1008.4
20260507203731 65 33 0.0 2.0 0.00 0.00 0.00 67 1008.3
20260507202230 64 13 3.0 5.0 0.00 0.00 0.00 68 1008.2
20260507200730 64 1 0.0 0.0 0.00 0.00 0.00 68 1008.2
20260507195231 64 1 1.0 2.0 0.00 0.00 0.00 67 1008.2
20260507192231 66 40 2.0 3.0 0.00 0.00 0.00 65 1008.1
20260507190729 68 234 2.0 3.0 0.00 0.00 0.00 61 1008.0
20260507185230 69 230 4.0 6.0 0.00 0.00 0.00 60 1007.8
20260507183731 68 255 7.0 9.0 0.00 0.00 0.00 61 1008.0
20260507182230 67 261 6.0 9.0 0.00 0.00 0.00 63 1008.1
20260507180731 66 225 2.0 5.0 0.00 0.00 0.00 67 1008.1
20260507175229 66 203 0.0 0.0 0.00 0.00 0.00 67 1008.2
20260507173730 66 262 2.0 3.0 0.00 0.00 0.00 67 1008.2
20260507172231 67 206 1.0 5.0 0.00 0.00 0.00 65 1008.3
20260507170730 67 152 4.0 7.0 0.00 0.00 0.00 64 1008.3
20260507165230 68 154 3.0 5.0 0.00 0.00 0.00 62 1008.5
20260507163732 68 249 2.0 4.0 0.00 0.00 0.00 61 1008.6
20260507162231 69 256 3.0 3.0 0.00 0.00 0.00 60 1008.7
20260507160731 69 249 5.0 8.0 0.00 0.00 0.00 60 1008.9
20260507155230 68 183 2.0 3.0 0.00 0.00 0.00 62 1009.0
20260507153731 67 138 0.0 0.0 0.00 0.00 0.00 64 1008.9
20260507152230 67 138 0.0 0.0 0.00 0.00 0.00 64 1009.1
20260507150730 67 172 1.0 2.0 0.00 0.00 0.00 66 1009.2
20260507145231 67 168 1.0 2.0 0.00 0.00 0.00 65 1009.4
20260507143730 68 177 2.0 4.0 0.00 0.00 0.00 64 1009.6
20260507140730 69 237 4.0 6.0 0.00 0.00 0.00 61 1009.9